Hourly Data Report for October 20, 2014

All times are specified in Local Standard Time (LST). Add 1 hour to adjust for Daylight Saving Time where and when it is observed.

MONCTON INTL A
NEW BRUNSWICK

46°06'44.000" N
64°40'43.000" W
70.70 m
8103201
71705
YQM

Download Data

Hourly Data (October 2014)
Hourly Data Report for October 20, 2014
Temp Definition
°C
Dew Point Temp Definition
°C
Rel Hum Definition
%
Wind Dir Definition
10's deg

Wind Spd Definition
km/h
Visibility Definition
km
Stn Press Definition
kPa
Hmdx Definition


Wind Chill Definition


Weather Definition


TIME
00:00 Legend Double Dagger 3.5 1.4 86 31 16 12.9 99.51     Rain
01:00 Legend Double Dagger 3.0 1.1 87 30 17 12.9 99.50     Rain
02:00 Legend Double Dagger 3.0 1.1 87 29 16 12.9 99.46     LegendNANA
03:00 Legend Double Dagger 3.3 1.4 87 26 15 12.9 99.40     Rain
04:00 Legend Double Dagger 3.2 1.1 86 27 17 16.1 99.39     Rain
05:00 Legend Double Dagger 3.2 0.9 85 27 22 24.1 99.44     Mostly Cloudy
06:00 Legend Double Dagger 3.1 0.2 81 27 24 24.1 99.49     LegendNANA
07:00 Legend Double Dagger 2.2 -0.7 81 27 25 24.1 99.59     LegendNANA
08:00 Legend Double Dagger 2.7 -1.1 76 26 25 24.1 99.70     Mainly Clear
09:00 Legend Double Dagger 3.9 -1.3 69 26 35 24.1 99.77     LegendNANA
10:00 Legend Double Dagger 5.0 -2.1 60 27 39 24.1 99.82     LegendNANA
11:00 Legend Double Dagger 5.8 -1.6 59 25 37 24.1 99.83     Mainly Clear
12:00 Legend Double Dagger 7.7 -1.5 52 26 31 24.1 99.83     LegendNANA
13:00 Legend Double Dagger 7.1 -2.6 50 25 39 24.1 99.85     LegendNANA
14:00 Legend Double Dagger 7.2 -1.7 53 25 36 24.1 99.86     Mostly Cloudy
15:00 Legend Double Dagger 6.8 -2.1 53 24 37 24.1 99.95     LegendNANA
16:00 Legend Double Dagger 6.6 -2.6 52 26 30 24.1 100.02     LegendNANA
17:00 Legend Double Dagger 5.8 -2.5 55 26 23 24.1 100.09     Mainly Clear
18:00 Legend Double Dagger 5.0 -3.1 56 25 24 24.1 100.21     LegendNANA
19:00 Legend Double Dagger 3.3 -2.9 64 24 14 24.1 100.28     LegendNANA
20:00 Legend Double Dagger 2.1 -2.2 73 20 10 24.1 100.33     Mainly Clear
21:00 Legend Double Dagger 1.0 -2.4 78 20 13 24.1 100.41     LegendNANA
22:00 Legend Double Dagger 0.9 -2.2 80 22 15 24.1 100.45     LegendNANA
23:00 Legend Double Dagger 1.0 -2.1 80 23 14 24.1 100.49     Mainly Clear

Notes on Data Quality.

Legend

  • E = Estimated
  • M = Missing
  • NA = Not Available
  • ‡ = Partner data that is not subject to review by the National Climate Archives
Date modified: